Location: Maddington
(51.2000°N, 1.9167°W)
Time: 02:01:25
(UTC+00:00)

Landsat 7 - Pass Details

Date: 18 September 2020
Orbit: 701 x 703 km, 98.1° (Epoch: 30 October)

Event Time Altitude Azimuth Distance (km) Brightness Sun altitude
Exits shadow 21:04:39 89° 111° (ESE) 712 3.7 -25.4°
Maximum altitude 21:04:40 89° 71° (ENE) 712 3.7 -25.4°
Drops below altitude 10° 21:09:28 10° 346° (NNW) 2,185 7.0 -26.0°
Sets 21:11:44 0° 346° (NNW) 3,108 8.0 -26.3°
